Location: Newark
(44.1667°N, 8.2500°E)
Time: 00:09:59
(UTC+00:00)

S-56A Canister/Altair - Pass Details

Date: 15 December 2019
Orbit: 634 x 2498 km, 38.9° (Epoch: 18 January)

Event Time Altitude Azimuth Distance (km) Brightness Sun altitude
Rises 15:30:06 0° 284° (WNW) 6,162 12.8 1.9°
Reaches altitude 10° 15:35:51 10° 270° (W) 5,036 12.7 1.1°
Maximum altitude 15:44:34 20° 232° (SW) 3,939 12.8 -0.2°
Drops below altitude 10° 15:52:04 10° 191° (SSW) 4,212 12.0 -1.3°
Sets 15:56:18 0° 175° (S) 4,880 12.0 -2.0°
